Location: Erp
(42.9417°N, 1.2009°E)
Time: 09:33:27
(UTC+00:00)

COSMO-SKYMED 1 - Pass Details

Date: 12 January 2026
Orbit: 578 x 579 km, 97.9° (Epoch: 11 February)

Event Time Altitude Azimuth Distance (km) Brightness Sun altitude
Exits shadow 17:10:07 - 43° (NE) 2,352 4.9 -5.3°
Reaches altitude 10° 17:11:57 10° 62° (ENE) 1,897 4.4 -5.6°
Maximum altitude 17:13:55 13° 91° (E) 1,697 4.3 -6.0°
Drops below altitude 10° 17:15:52 10° 119° (ESE) 1,888 4.7 -6.3°
Sets 17:19:05 0° 148° (SSE) 2,780 5.8 -6.8°
